Date String (YYYY-MM-DD hh:mm:ss) UTC,Instrument flags,Ambient pressure (hPa),Sample flow (lpm),Bypass flow (lpm),Sample temperature (°C),Ambient temperature (°C),ASC tube jacket temperature (°C),LED temperature (°C),Box temperature (°C),Sample RH (%),Span deviation,Mass concentration (μg/m³),Mass concentration (μg/m³),Mass concentration (μg/m³)
DateTimeUTC,F1_M11,P_M11,Q1_M11,Q2_M11,T1_M11,T2_M11,T3_M11,T4_M11,T5_M11,U1_M11,ZSPAN_M11,X2_M11,X0_M11,X1_M11
2023-05-30 13:00:00,,0830.2,4.99,0.00,29.1,27.3,00.0,37.5,30.7,23.4,0000.0,0004.95,0013.49,0003.78
2023-05-30 13:01:00,,0830.2,4.99,0.00,29.1,27.3,00.0,37.5,30.7,23.5,0000.0,0004.92,0013.61,0003.78
2023-05-30 13:02:00,,0830.3,5.00,0.00,29.1,27.3,00.0,37.5,30.7,23.6,0000.0,0004.87,0014.12,0003.76
2023-05-30 13:03:00,,0830.3,5.00,0.00,29.1,27.3,00.0,37.5,30.6,23.5,0000.0,0004.78,0014.02,0003.75
2023-05-30 13:04:00,,0830.2,5.00,0.00,29.1,27.3,00.0,37.5,30.7,23.4,0000.0,0004.73,0013.92,0003.74
2023-05-30 13:05:00,,0830.2,5.00,0.00,29.1,27.3,00.0,37.5,30.7,23.2,0000.0,0004.69,0013.34,0003.73
2023-05-30 13:06:00,,0830.3,5.00,0.00,29.0,27.3,00.0,37.5,30.6,23.2,0000.0,0004.69,0013.73,0003.72
2023-05-30 13:07:00,,0830.2,5.00,0.00,29.0,27.3,00.0,37.4,30.6,23.1,0000.0,0004.71,0013.88,0003.71
2023-05-30 13:08:00,,0830.2,4.99,0.00,29.0,27.3,00.0,37.4,30.6,23.4,0000.0,0004.73,0014.29,0003.71
2023-05-30 13:09:00,,0830.2,4.98,0.00,29.0,27.3,00.0,37.4,30.6,23.5,0000.0,0004.72,0013.23,0003.70
2023-05-30 13:10:00,,0830.3,5.00,0.00,29.0,27.3,00.0,37.4,30.6,23.7,0000.0,0004.74,0012.96,0003.71
2023-05-30 13:11:00,,0830.2,5.01,0.00,29.0,27.3,00.0,37.4,30.6,23.9,0000.0,0004.72,0012.59,0003.71
2023-05-30 13:12:00,,0830.2,5.01,0.00,29.0,27.4,00.0,37.4,30.6,24.1,0000.0,0004.70,0012.13,0003.71
2023-05-30 13:13:00,,0830.3,4.99,0.00,29.0,27.4,00.0,37.4,30.7,23.9,0000.0,0004.69,0011.81,0003.72
2023-05-30 13:14:00,,0830.3,4.99,0.00,29.1,27.4,00.0,37.4,30.7,23.5,0000.0,0004.71,0011.95,0003.71
2023-05-30 13:15:00,,0830.2,5.00,0.00,29.1,27.4,00.0,37.4,30.7,23.6,0000.0,0004.70,0012.50,0003.70
2023-05-30 13:16:00,,0830.2,4.99,0.00,29.1,27.4,00.0,37.4,30.7,23.6,0000.0,0004.71,0012.97,0003.68
2023-05-30 13:17:00,,0830.2,5.00,0.00,29.1,27.4,00.0,37.4,30.7,23.6,0000.0,0004.70,0012.87,0003.67
2023-05-30 13:18:00,,0830.2,5.00,0.00,29.1,27.5,00.0,37.4,30.7,23.7,0000.0,0004.67,0012.72,0003.67
2023-05-30 13:19:00,,0830.2,5.00,0.00,29.1,27.5,00.0,37.4,30.7,23.7,0000.0,0004.67,0012.40,0003.67
2023-05-30 13:20:00,,0830.3,5.00,0.00,29.1,27.5,00.0,37.4,30.7,23.8,0000.0,0004.66,0012.82,0003.66
2023-05-30 13:21:00,,0830.3,5.01,0.00,29.1,27.5,00.0,37.4,30.7,24.1,0000.0,0004.64,0013.11,0003.65
2023-05-30 13:22:00,,0830.3,5.00,0.00,29.1,27.4,00.0,37.4,30.7,23.9,0000.0,0004.64,0013.06,0003.66
2023-05-30 13:23:00,,0830.3,5.01,0.00,29.1,27.4,00.0,37.4,30.7,24.1,0000.0,0004.61,0012.94,0003.64
2023-05-30 13:24:00,,0830.3,4.99,0.00,29.1,27.4,00.0,37.4,30.7,24.2,0000.0,0004.64,0012.42,0003.64
2023-05-30 13:25:00,,0830.2,5.00,0.00,29.1,27.4,00.0,37.4,30.7,24.5,0000.0,0004.62,0011.83,0003.63
2023-05-30 13:26:00,,0830.2,4.99,0.00,29.1,27.4,00.0,37.4,30.7,24.4,0000.0,0004.63,0011.26,0003.63
2023-05-30 13:27:00,,0830.3,5.00,0.00,29.1,27.4,00.0,37.4,30.7,25.1,0000.0,0004.65,0010.85,0003.65
2023-05-30 13:28:00,,0830.3,5.00,0.00,29.1,27.4,00.0,37.4,30.7,24.9,0000.0,0004.68,0010.55,0003.65
2023-05-30 13:29:00,,0830.2,5.00,0.00,29.1,27.4,00.0,37.4,30.7,24.5,0000.0,0004.66,0010.57,0003.65
2023-05-30 13:30:00,,0830.2,5.00,0.00,29.1,27.4,00.0,37.4,30.7,24.2,0000.0,0004.69,0010.80,0003.65
2023-05-30 13:31:00,,0830.1,5.00,0.00,29.1,27.4,00.0,37.4,30.7,24.1,0000.0,0004.70,0010.95,0003.64
2023-05-30 13:32:00,,0830.1,5.00,0.00,29.1,27.4,00.0,37.4,30.6,24.0,0000.0,0004.74,0011.06,0003.64
2023-05-30 13:33:00,,0830.1,5.00,0.00,29.0,27.3,00.0,37.4,30.6,23.8,0000.0,0004.75,0011.07,0003.65
2023-05-30 13:34:00,,0830.1,5.00,0.00,29.0,27.3,00.0,37.4,30.6,24.0,0000.0,0004.80,0011.21,0003.66
2023-05-30 13:35:00,,0830.1,5.01,0.00,29.0,27.3,00.0,37.4,30.6,23.1,0000.0,0004.79,0011.21,0003.68
2023-05-30 13:36:00,,0830.1,4.99,0.00,29.0,27.3,00.0,37.4,30.6,23.7,0000.0,0004.79,0011.03,0003.69
2023-05-30 13:37:00,,0830.1,5.00,0.00,29.0,27.3,00.0,37.4,30.6,24.1,0000.0,0004.76,0010.67,0003.70
2023-05-30 13:38:00,,0830.1,4.99,0.00,29.0,27.3,00.0,37.4,30.6,23.8,0000.0,0004.72,0010.48,0003.71
2023-05-30 13:39:00,,0830.1,5.01,0.00,29.0,27.3,00.0,37.4,30.6,23.5,0000.0,0004.73,0010.82,0003.71
2023-05-30 13:40:00,,0830.1,5.01,0.00,29.0,27.3,00.0,37.4,30.6,23.4,0000.0,0004.74,0011.33,0003.71
2023-05-30 13:41:00,,0830.1,5.00,0.00,29.0,27.3,00.0,37.4,30.6,23.1,0000.0,0004.75,0011.21,0003.71
2023-05-30 13:42:00,,0830.1,5.00,0.00,29.0,27.3,00.0,37.4,30.6,23.2,0000.0,0004.72,0010.51,0003.71
2023-05-30 13:43:00,,0830.1,5.00,0.00,29.0,27.3,00.0,37.4,30.6,23.5,0000.0,0004.64,0009.86,0003.70
2023-05-30 13:44:00,,0830.1,5.00,0.00,29.0,27.3,00.0,37.4,30.6,23.9,0000.0,0004.63,0010.26,0003.69
2023-05-30 13:45:00,,0830.1,5.00,0.00,29.0,27.3,00.0,37.4,30.6,24.2,0000.0,0004.56,0010.06,0003.68
2023-05-30 13:46:00,,0830.1,5.00,0.00,29.0,27.3,00.0,37.4,30.6,24.4,0000.0,0004.54,0009.93,0003.67
2023-05-30 13:47:00,,0830.1,5.00,0.00,29.0,27.4,00.0,37.4,30.6,24.2,0000.0,0004.55,0009.94,0003.66
2023-05-30 13:48:00,,0830.1,5.00,0.00,29.0,27.4,00.0,37.4,30.6,23.9,0000.0,0004.56,0009.83,0003.65
2023-05-30 13:49:00,,0830.1,5.00,0.00,29.0,27.4,00.0,37.4,30.6,24.1,0000.0,0004.58,0009.88,0003.64
2023-05-30 13:50:00,,0830.1,5.00,0.00,29.0,27.4,00.0,37.4,30.6,24.7,0000.0,0004.54,0009.60,0003.64
2023-05-30 13:51:00,,0830.1,5.00,0.00,29.0,27.4,00.0,37.4,30.6,24.4,0000.0,0004.54,0009.15,0003.64
2023-05-30 13:52:00,,0830.1,5.01,0.00,29.0,27.4,00.0,37.4,30.6,24.7,0000.0,0004.53,0009.21,0003.64
2023-05-30 13:53:00,,0830.1,5.00,0.00,29.0,27.4,00.0,37.4,30.7,25.0,0000.0,0004.53,0009.21,0003.65
2023-05-30 13:54:00,,0830.1,5.00,0.00,29.0,27.4,00.0,37.4,30.7,25.4,0000.0,0004.55,0009.35,0003.66
2023-05-30 13:55:00,,0830.1,5.00,0.00,29.0,27.4,00.0,37.4,30.7,25.3,0000.0,0004.53,0009.06,0003.66
2023-05-30 13:56:00,,0830.1,5.00,0.00,29.1,27.4,00.0,37.4,30.6,24.4,0000.0,0004.59,0009.17,0003.67
2023-05-30 13:57:00,,0830.1,5.00,0.00,29.1,27.4,00.0,37.4,30.7,24.7,0000.0,0004.57,0009.15,0003.66
2023-05-30 13:58:00,,0830.1,5.00,0.00,29.1,27.4,00.0,37.4,30.7,24.8,0000.0,0004.56,0009.07,0003.67
2023-05-30 13:59:00,,0830.1,5.00,0.00,29.1,27.4,00.0,37.4,30.7,25.2,0000.0,0004.58,0008.98,0003.67
